Flag for Germany Weather past 2 weeks in Kaiserslautern, Rhineland-Palatinate, Germany

Now
72 °F

Broken clouds.


Feels Like: 75 °F
Forecast: 59 / 74 °F
Wind: 7 mph from North

Location: Ramstein

Current Time: Sep 19, 2014 at 1:57:44 PM

Latest Report: Sep 19, 2014 at 12:59 PM


Visibility: N/A

Pressure: 29.93 "Hg

Humidity: 69%

Dew point: 61 °F

Location of KaiserslauternLocation

Historic Weather in Kaiserslautern — Graph

°F

Kaiserslautern temperature yesterday

Maximum temperature yesterday: 79 °F (at 2:58 PM)
Minimum temperature yesterday: 59 °F (at 4:58 AM)
Average temperature yesterday: 66 °F

Past Weeks' High & Low Weather Summary

 TemperatureHumidityPressure
High79 °F (Sep 6, 3:58 PM)100% (Sep 4, 11:58 PM)30.19 "Hg (Sep 4, 11:58 PM)
Low41 °F (Sep 12, 4:58 AM)44% (Sep 16, 2:58 PM)29.84 "Hg (Sep 18, 2:58 AM)
Average59 °F81%30.01 "Hg
* Reported Sep 4 12:58 PM — Sep 19 12:03 PM, Kaiserslautern, Weather by CustomWeather, © 2014

Note: Actual official high and low records may vary slightly from our data, if they occured in-between our weather recording intervals... More about our weather records

Advertising

Kaiserslautern weather history for previous 24 hours

 ConditionsComfort  
Time TempWeatherWind HumidityBarometerVisibility
12:03 PM
Sep 19
70 °FScattered clouds.5 mph73%29.93 "HgN/A
11:58 AM70 °FPartly sunny.6 mph69%29.92 "HgN/A
10:58 AM67 °FPassing clouds.5 mph83%29.92 "HgN/A
10:03 AM64 °FPassing clouds.3 mph88%29.93 "HgN/A
9:58 AM64 °FSunny.3 mph91%29.92 "HgN/A
8:58 AM63 °FLight rain. Passing clouds.No wind94%29.91 "HgN/A
7:58 AM62 °FRain. Fog.2 mph91%29.90 "Hg4 mi
6:58 AM62 °FOvercast.1 mph92%29.88 "HgN/A
5:58 AM62 °FLight rain. Partly cloudy.2 mph91%29.88 "HgN/A
4:58 AM60 °FLight rain. Mostly cloudy.6 mph92%29.88 "HgN/A
3:58 AM58 °FMostly cloudy.No wind94%29.87 "HgN/A
2:58 AM57 °FPassing clouds.1 mph94%29.88 "HgN/A
1:58 AM61 °FClear.No wind89%29.88 "HgN/A
12:58 AM62 °FClear.No wind87%29.88 "HgN/A
11:58 PM
Sep 18
64 °FPassing clouds.1 mph80%29.88 "HgN/A
10:58 PM66 °FPassing clouds.3 mph79%29.88 "HgN/A
9:58 PM68 °FOvercast.3 mph73%29.89 "HgN/A
8:58 PM70 °FOvercast.No wind64%29.87 "HgN/A
7:58 PM70 °FLight rain. Partly sunny.No wind70%29.87 "HgN/A
4:58 PM75 °FSunny.7 mph54%29.85 "HgN/A
3:58 PM79 °FSunny.5 mph45%29.84 "HgN/A
2:58 PM79 °FLight rain. Sunny.2 mph45%29.84 "HgN/A
1:58 PM75 °FScattered clouds.2 mph57%29.85 "HgN/A
Weather by CustomWeather, © 2014

See weather overviewHow to use our weather pages